H1 CPF  2 ESA 2020 12 29 10 364 01 galileo214
H2  1606904 7214    41862 2020 12 28 23 59 42 2021  1  2 23 59 42   900 1 1  0 0 0 01
H9
10 0 59216  86382.000000  0      -9007704.018     -25787171.574     -11410311.313
99